When you browse on this site, cookies collect data to enhance your experience and personalize the content and advertising you see.
Visit our Privacy Policy to learn more. By continuing to use the site, you agree to this use of cookies and data.
  • In Lithuania
  • List of Countries
  • For 7 days
  • Water Temperature
  • Weather Map
  • Weather Widgets
  • user-avatar
    Login

    Hourly Weather Ischgl

    Today, 19 September, Thursday

    Time Temperature Precipitation Wind Pressure Humidity
    00:00 +4°C° 0 mm 1 mps 577 mmHg 92%
    01:00 +4°C° 0 mm 1 mps 577 mmHg 90%
    02:00 +2°C° 0 mm 0 mps 576 mmHg 91%
    03:00 +1°C° 0 mm 0 mps 576 mmHg 92%
    04:00 0°C° 0 mm 0 mps 575 mmHg 93%
    05:00 +1°C° 0 mm 0 mps 575 mmHg 91%
    06:00 +2°C° 0 mm 1 mps 576 mmHg 88%
    07:00 +3°C° 0 mm 1 mps 576 mmHg 86%
    08:00 +5°C° 0 mm 1 mps 577 mmHg 76%
    09:00 +5°C° 0 mm 2 mps 578 mmHg 66%
    10:00 +7°C° 0 mm 2 mps 579 mmHg 56%
    11:00 +8°C° 0 mm 2 mps 580 mmHg 54%
    12:00 +9°C° 0 mm 2 mps 580 mmHg 51%
    13:00 +10°C° 0 mm 2 mps 581 mmHg 49%
    14:00 +9°C° 0 mm 2 mps 581 mmHg 51%
    15:00 +9°C° 0 mm 2 mps 580 mmHg 53%
    16:00 +9°C° 0 mm 2 mps 580 mmHg 55%
    17:00 +7°C° 0 mm 2 mps 579 mmHg 66%
    18:00 +4°C° 0 mm 2 mps 578 mmHg 77%
    19:00 +3°C° 0 mm 1 mps 577 mmHg 88%
    20:00 +2°C° 0 mm 1 mps 577 mmHg 88%
    21:00 +2°C° 0 mm 1 mps 577 mmHg 88%
    22:00 0°C° 0 mm 0 mps 577 mmHg 89%
    23:00 0°C° 0 mm 0 mps 577 mmHg 88%

    Tomorrow, 20 September, Friday

    Time Temperature Precipitation Wind Pressure Humidity
    00:00 +1°C° 0 mm 1 mps 577 mmHg 87%
    01:00 +1°C° 0 mm 1 mps 577 mmHg 86%
    02:00 +1°C° 0 mm 1 mps 577 mmHg 85%
    03:00 +1°C° 0 mm 1 mps 577 mmHg 84%
    04:00 +1°C° 0 mm 1 mps 577 mmHg 83%
    05:00 +2°C° 0 mm 1 mps 577 mmHg 81%
    06:00 +2°C° 0 mm 0 mps 578 mmHg 80%
    07:00 +3°C° 0 mm 0 mps 578 mmHg 78%
    08:00 +5°C° 0 mm 0 mps 580 mmHg 65%
    09:00 +9°C° 0 mm 1 mps 581 mmHg 51%
    10:00 +11°C° 0 mm 1 mps 582 mmHg 38%
    11:00 +12°C° 0 mm 1 mps 582 mmHg 37%
    12:00 +13°C° 0 mm 1 mps 582 mmHg 36%
    13:00 +14°C° 0 mm 1 mps 583 mmHg 34%
    14:00 +14°C° 0 mm 1 mps 582 mmHg 38%
    15:00 +13°C° 0 mm 2 mps 582 mmHg 41%
    16:00 +13°C° 0 mm 2 mps 582 mmHg 45%
    17:00 +10°C° 0 mm 1 mps 580 mmHg 58%
    18:00 +7°C° 0 mm 1 mps 579 mmHg 71%
    19:00 +3°C° 0 mm 0 mps 577 mmHg 84%
    20:00 +3°C° 0 mm 0 mps 578 mmHg 84%
    21:00 +4°C° 0 mm 1 mps 578 mmHg 85%
    22:00 +4°C° 0 mm 1 mps 578 mmHg 86%
    23:00 +4°C° 0 mm 1 mps 578 mmHg 87%

    Day after tomorrow, 21 September, Saturday

    Time Temperature Precipitation Wind Pressure Humidity
    00:00 +4°C° 0 mm 1 mps 577 mmHg 89%
    01:00 +4°C° 0 mm 1 mps 577 mmHg 90%
    02:00 +4°C° 0 mm 1 mps 577 mmHg 90%
    03:00 +3°C° 0 mm 1 mps 577 mmHg 90%
    04:00 +3°C° 0 mm 1 mps 577 mmHg 90%
    05:00 +4°C° 0 mm 1 mps 577 mmHg 89%
    06:00 +4°C° 0 mm 1 mps 577 mmHg 87%
    07:00 +5°C° 0 mm 1 mps 577 mmHg 86%
    08:00 +7°C° 0 mm 1 mps 578 mmHg 74%
    09:00 +10°C° 0 mm 1 mps 579 mmHg 63%
    10:00 +12°C° 0 mm 1 mps 581 mmHg 52%
    11:00 +13°C° 0 mm 1 mps 581 mmHg 49%
    12:00 +14°C° 0 mm 1 mps 581 mmHg 45%
    13:00 +15°C° 0 mm 2 mps 582 mmHg 41%
    14:00 +15°C° 0 mm 2 mps 581 mmHg 43%
    15:00 +15°C° 0 mm 2 mps 580 mmHg 44%
    16:00 +14°C° 0 mm 2 mps 580 mmHg 46%
    17:00 +12°C° 0 mm 2 mps 579 mmHg 57%
    18:00 +8°C° 0 mm 2 mps 578 mmHg 68%
    19:00 +6°C° 0 mm 2 mps 577 mmHg 79%
    20:00 +6°C° 0 mm 2 mps 577 mmHg 81%
    21:00 +4°C° 0 mm 3 mps 576 mmHg 84%
    22:00 +4°C° 0 mm 3 mps 576 mmHg 86%
    23:00 +4°C° 0 mm 3 mps 576 mmHg 85%

    22 September, Sunday

    Time Temperature Precipitation Wind Pressure Humidity
    00:00 +4°C° 0 mm 3 mps 576 mmHg 85%
    01:00 +3°C° 0 mm 3 mps 575 mmHg 84%
    02:00 +3°C° 0 mm 3 mps 575 mmHg 84%
    03:00 +3°C° 0 mm 3 mps 575 mmHg 84%
    04:00 +3°C° 0 mm 3 mps 575 mmHg 84%
    05:00 +4°C° 0 mm 2 mps 575 mmHg 84%
    06:00 +5°C° 0 mm 2 mps 575 mmHg 85%
    07:00 +5°C° 0 mm 2 mps 575 mmHg 86%
    08:00 +7°C° 0 mm 2 mps 576 mmHg 79%
    09:00 +9°C° 0 mm 2 mps 577 mmHg 73%
    10:00 +12°C° 0 mm 2 mps 578 mmHg 66%
    11:00 +12°C° 0.1 mm 2 mps 578 mmHg 65%
    12:00 +13°C° 0.1 mm 2 mps 578 mmHg 63%
    13:00 +13°C° 0.1 mm 2 mps 578 mmHg 62%
    14:00 +13°C° 0.4 mm 2 mps 577 mmHg 65%
    15:00 +12°C° 0.4 mm 1 mps 577 mmHg 68%
    16:00 +12°C° 0.4 mm 1 mps 576 mmHg 70%
    17:00 +11°C° 0.2 mm 1 mps 576 mmHg 76%
    18:00 +9°C° 0.2 mm 1 mps 575 mmHg 82%
    19:00 +7°C° 0.2 mm 2 mps 574 mmHg 88%
    20:00 +7°C° 0.1 mm 2 mps 575 mmHg 89%
    21:00 +7°C° 0.1 mm 2 mps 575 mmHg 90%
    22:00 +6°C° 0.1 mm 2 mps 575 mmHg 91%
    23:00 +7°C° 0.3 mm 1 mps 575 mmHg 93%

    23 September, Monday

    Time Temperature Precipitation Wind Pressure Humidity
    00:00 +7°C° 0.3 mm 1 mps 575 mmHg 94%
    01:00 +7°C° 0.3 mm 1 mps 575 mmHg 95%
    02:00 +7°C° 0.8 mm 1 mps 575 mmHg 96%
    03:00 +7°C° 0.8 mm 1 mps 575 mmHg 97%
    04:00 +6°C° 0.8 mm 2 mps 575 mmHg 97%
    05:00 +5°C° 0.9 mm 2 mps 575 mmHg 97%
    06:00 +5°C° 0.9 mm 2 mps 575 mmHg 97%
    07:00 +4°C° 0.9 mm 2 mps 575 mmHg 97%
    08:00 +4°C° 0.2 mm 2 mps 575 mmHg 96%
    09:00 +4°C° 0.2 mm 2 mps 575 mmHg 95%
    10:00 +4°C° 0.2 mm 2 mps 575 mmHg 93%
    11:00 +4°C° 0 mm 2 mps 575 mmHg 90%
    12:00 +5°C° 0 mm 2 mps 575 mmHg 88%
    13:00 +5°C° 0 mm 2 mps 575 mmHg 85%
    14:00 +6°C° 0 mm 2 mps 575 mmHg 82%
    15:00 +6°C° 0 mm 2 mps 575 mmHg 80%
    16:00 +6°C° 0 mm 2 mps 575 mmHg 77%
    17:00 +6°C° 0 mm 1 mps 575 mmHg 81%
    18:00 +5°C° 0 mm 1 mps 575 mmHg 85%
    19:00 +4°C° 0 mm 1 mps 575 mmHg 89%
    20:00 +3°C° 0 mm 1 mps 575 mmHg 90%
    21:00 +2°C° 0 mm 1 mps 574 mmHg 92%
    22:00 +1°C° 0 mm 0 mps 574 mmHg 93%
    23:00 +1°C° 0 mm 0 mps 574 mmHg 90%

    24 September, Tuesday

    Time Temperature Precipitation Wind Pressure Humidity
    00:00 +2°C° 0 mm 1 mps 574 mmHg 87%
    01:00 +2°C° 0 mm 1 mps 574 mmHg 84%
    02:00 +1°C° 0 mm 1 mps 574 mmHg 79%
    03:00 +1°C° 0 mm 1 mps 574 mmHg 75%
    04:00 0°C° 0 mm 0 mps 574 mmHg 70%
    05:00 +2°C° 0 mm 1 mps 574 mmHg 66%
    06:00 +3°C° 0 mm 1 mps 575 mmHg 63%
    07:00 +4°C° 0 mm 1 mps 575 mmHg 59%
    08:00 +6°C° 0 mm 1 mps 576 mmHg 52%
    09:00 +8°C° 0 mm 1 mps 577 mmHg 45%
    10:00 +9°C° 0 mm 0 mps 578 mmHg 39%
    11:00 +11°C° 0 mm 1 mps 579 mmHg 40%
    12:00 +12°C° 0 mm 1 mps 579 mmHg 42%
    13:00 +13°C° 0 mm 1 mps 579 mmHg 43%
    14:00 +12°C° 0 mm 1 mps 579 mmHg 49%
    15:00 +11°C° 0 mm 1 mps 578 mmHg 55%
    16:00 +10°C° 0 mm 1 mps 577 mmHg 61%
    17:00 +9°C° 0 mm 1 mps 577 mmHg 65%
    18:00 +8°C° 0 mm 1 mps 577 mmHg 69%
    19:00 +7°C° 0 mm 0 mps 576 mmHg 73%
    20:00 +8°C° 0 mm 1 mps 576 mmHg 73%
    21:00 +7°C° 0 mm 1 mps 576 mmHg 72%
    22:00 +7°C° 0 mm 1 mps 576 mmHg 72%
    23:00 +7°C° 0 mm 1 mps 576 mmHg 74%
    Show more